Regional Weather Roundup
Issued by NWS

Home | Current Version | Previous Version | Text Only | Print | Product List | Glossary On
Versions: 1 2 3 4 5 6 7 8 9 10 11 12 13 14 15 16 17 18 19 20 21 22 23 24 25 26 27 28 29 30 31 32 33 34 35 36 37 38 39 40 41 42 43 44 45 46 47 48 49 50
262
ASUS43 KMKX 082000
RWRWI

WISCONSIN REGIONAL WEATHER ROUNDUP
NATIONAL WEATHER SERVICE MILWAUKEE/SULLIVAN WI
200 PM CST MON FEB 08 2016

NOTE: "FAIR" INDICATES FEW OR NO CLOUDS BELOW 12,000 FEET WITH NO
SIGNIFICANT WEATHER AND/OR OBSTRUCTIONS TO VISIBILITY.

WIZ001-002-006>008-014>016-023>028-082100-
NORTHWEST WISCONSIN

CITY           SKY/WX    TMP DP  RH WIND       PRES   REMARKS
SUPERIOR ARPT  FLURRIES  14   4  63 N12G17    29.91S WCI   0
ASHLAND        LGT SNOW  16  10  77 NW10G20   29.84S WCI   4
HAYWARD        FLURRIES  14   4  64 NW12G18   29.83S WCI   0
SIREN          CLOUDY    14   4  65 NW8       29.89S WCI   3
CUMBERLAND     CLOUDY    14   5  67 NW18      29.83F WCI  -3
RICE LAKE      FLURRIES  14   5  68 NW8G16    29.86S WCI   3
CHETEK         CLOUDY    14   5  69 NW8       29.84F WCI   3
LADYSMITH      FLURRIES  15   8  75 NW14      29.81S WCI   0
EAU CLAIRE     NOT AVBL
MENOMONIE      FLURRIES  16   6  64 W14       29.87S WCI   2
NEW RICHMOND   CLOUDY    15   4  62 NW16G24   29.89S WCI  -1
OSCEOLA        CLOUDY    15   6  67 NW13G22   29.93F WCI   1
$$

WIZ003>005-009-010-017-018-082100-
NORTH CENTRAL WISCONSIN

CITY           SKY/WX    TMP DP  RH WIND       PRES   REMARKS
MANITOWISH WTR LGT SNOW  16  11  81 NW13      29.71S WCI   2
ARBOR VITAE    LGT SNOW  19  13  77 NW14G20   29.70R WCI   6
WOODRUFF       LGT SNOW  19  13  77 NW14G20   29.70R WCI   6
RHINELANDER    CLOUDY    21  12  68 NW10      29.68R WCI  10
EAGLE RIVER    LGT SNOW  20  13  73 NW10      29.67S WCI   9
LAND O LAKES   LGT SNOW  19  13  77 N9        29.69R WCI   8
PHILLIPS       LGT SNOW  17  10  77 NW10G16   29.73S WCI   4
TOMAHAWK       CLOUDY    21  13  70 NW12G18   29.70S WCI   9
MEDFORD        CLOUDY    19  12  76 NW15      29.71S WCI   4
MERRILL        CLOUDY    24  14  66 N10G17    29.70S WCI  14
$$

WIZ029-030-035-036-043>047-082100-
CENTRAL WISCONSIN

CITY           SKY/WX    TMP DP  RH WIND       PRES   REMARKS
WAUSAU         CLOUDY    25  15  66 NW16G23   29.68S WCI  12
MOSINEE        CLOUDY    25  18  74 NW13      29.70R WCI  13
MARSHFIELD     CLOUDY    19  10  68 NW18      29.71S WCI   4
STEVENS POINT  CLOUDY    24  17  74 NW15      29.69R WCI  11
WAUPACA        CLOUDY    32  21  64 NW14      29.67S WCI  22
WAUTOMA        NOT AVBL
WISC RAPIDS    CLOUDY    21  12  68 NW17G24   29.74R WCI   7
CAMP DOUGLAS   NOT AVBL
$$

WIZ011>013-019>022-031-037>040-048>050-082100-
NORTHEAST WISCONSIN

CITY           SKY/WX    TMP DP  RH WIND       PRES   REMARKS
ANTIGO         CLOUDY    23  16  74 N12       29.65S WCI  12
SHAWANO        CLOUDY    32  21  64 N9        29.66R WCI  24
OCONTO         CLOUDY    28  25  91 N14G20    29.65R WCI  16
STURGEON BAY   CLOUDY    28  23  80 N14       29.65R WCI  17
GREEN BAY      LGT SNOW  30  26  85 N9        29.65R FOG     WCI  22
MANITOWOC      NOT AVBL
APPLETON       FLURRIES  28  21  74 W13       29.63R WCI  18
CLINTONVILLE   CLOUDY    30  21  69 N10       29.66R WCI  21
OSHKOSH        LGT SNOW  27  22  81 W12G18    29.65S WCI  17
$$

WIZ032>034-041-042-053>061-082100-
SOUTHWEST WISCONSIN

CITY           SKY/WX    TMP DP  RH WIND       PRES   REMARKS
LA CROSSE      CLOUDY    19   9  65 NW16      29.83F WCI   4
SPARTA         CLOUDY    20  12  69 NW14G24   29.80S WCI   7
VIROQUA        CLOUDY    19  11  71 NW17      29.76R WCI   3
BOSCOBEL       CLOUDY    23  11  60 NW9G20    29.80R WCI  13
PRAIRIE DU CHI CLOUDY    22  10  59 NW16G24   29.81S WCI   8
PLATTEVILLE    CLOUDY    21  15  76 NW15G22   29.75S WCI   8
$$

WIZ056-057-062-063-064-067-068-082100-
SOUTH CENTRAL WISCONSIN

CITY           SKY/WX    TMP DP  RH WIND       PRES   REMARKS
REEDSBURG      CLOUDY    20  13  75 NW12G17   29.74R WCI   8
BARABOO/DELLS  CLOUDY    21  13  72 NW16G22   29.72S WCI   7
LONE ROCK      CLOUDY    22  12  65 NW12G22   29.77R WCI  10
MINERAL POINT  CLOUDY    23  14  68 NW16      29.73R WCI  10
MADISON        CLOUDY    23  15  71 NW13G22   29.71R WCI  11
MIDDLETON      CLOUDY    25  17  71 NW15      29.71R WCI  12
WATERTOWN      CLOUDY    25  23  92 W8        29.67S WCI  16
MONROE         CLOUDY    25  18  74 W9        29.69S WCI  15
JANESVILLE     NOT AVBL
$$

WIZ051-052-058>065-066-070>072-082100-
SOUTHEAST WISCONSIN

CITY           SKY/WX    TMP DP  RH WIND       PRES   REMARKS
MILWAUKEE      CLOUDY    26  20  77 W15       29.65R WCI  14
WAUKESHA       CLOUDY    23  18  80 W12       29.66S WCI  12
MILWAUKEE/TIMM SNOW      25  19  80 W12       29.66R VSB 1/2 WCI  14
RACINE         CLOUDY    27  20  75 NW9       29.66S WCI  18
BURLINGTON     LGT SNOW  24  20  83 W9        29.67S WCI  14
KENOSHA        FLURRIES  28  20  71 NW12      29.65R WCI  18
FOND DU LAC    MIX PCPN  27  21  78 W13       29.66R WCI  16
SHEBOYGAN      FLURRIES  27  22  81 NW14      29.63R WCI  16
WEST BEND      FLURRIES  27  21  80 W12       29.64S WCI  16
JUNEAU         CLOUDY    25  18  75 NW10G18   29.68R WCI  15
$$

LSZ147-162-082100-
LAKE SUPERIOR

STATION/POSITION TIME  TEMP    WIND        PRES    WAVE
                       AIR SEA DIR/SP/G            HT/PER
                 (UTC) (F)     (DEG/KT/KT) (MB)    (FT/S)
DEVILS ISLAND    1900   14     320/ 18/ 20 1011.8F
PORT WING        1940   16     300/ 17/ 20 1011.9S
SAXON HARBOR     1900   18                 1009.8S
$$

LMZ867-665-643>646-082100-
LAKE MICHIGAN

STATION/POSITION TIME  TEMP    WIND        PRES    WAVE
                       AIR SEA DIR/SP/G            HT/PER
                 (UTC) (F)     (DEG/KT/KT) (MB)    (FT/S)
CHAMBERS ISLAND  1900   29     330/ 14/ 17 1004.1R
NORTHPORT PIER   1900   28     340/ 17/ 23 1004.1R
ALGOMA LAKESHORE 1911          360/ 14/ 20   N/A
KEWAUNEE LAKESHO 1900   33     310/ 10/ 13 1002.1F
SHEBOYGAN LAKESH 1900   26     280/ 14/ 17 1004.0F
PORT WASHINGTON  1900   28     300/ 10/ 16 1004.4F
MILWAUKEE LAKESH 1910   26     290/ 16/ 20   N/A
KENOSHA   LAKESH 1900   28     280/ 13/ 15 1004.1F
$$

TC  - TEMPERATURE IN CELSIUS
VSB - VISIBILITY IN STATUTE MILES
WCI - WIND CHILL INDEX
HX  - HEAT INDEX





USA.gov is the U.S. government's official web portal to all federal, state and local government web resources and services.